Volver al catálogo

RASSVET-3 25

ActivoPO
NORAD 100091·PAYLOAD·🇷🇺 Russia

Lanzado Jul 19, 2026 desde Plesetsk Cosmodrome

Loading…

Próximos Pases (próximas 24 horas)

TLE

ActualizadoSource: Space-Track

Época: Sep 14, 2026, 13:38 UTC

1 A0091U 26165J   26257.56854932 -.00042476  00000-0 -60401-3 0  9993
2 A0091  82.3018 167.9982 0007593 197.4965 162.6029 15.56504253  8933

Sigue RASSVET-3 25 en tiempo real con AllMySat

Download on the App Store